TimeCET,TemperatureF,Dew PointF,Humidity,Sea Level PressureIn,VisibilityMPH,Wind Direction,Wind SpeedMPH,Gust SpeedMPH,PrecipitationIn,Events,Conditions,WindDirDegrees,DateUTC
12:25 AM,46.4,41.0,81,30.15,6.2,South,17.3,-,N/A,,Overcast,190,2013-12-15 23:25:00
12:55 AM,48.2,42.8,82,30.15,6.2,South,17.3,-,N/A,,Overcast,190,2013-12-15 23:55:00
1:00 AM,48,42,72,30.16,19,South,17.9,,,,Partly Cloudy,190,2013-12-16 00:00:00
1:25 AM,48.2,42.8,82,30.15,6.2,South,19.6,-,N/A,,Overcast,190,2013-12-16 00:25:00
1:55 AM,48.2,42.8,82,30.15,6.2,SSW,19.6,-,N/A,,Overcast,200,2013-12-16 00:55:00
2:25 AM,48.2,42.8,82,30.15,6.2,South,18.4,-,N/A,,Overcast,190,2013-12-16 01:25:00
2:55 AM,48.2,42.8,82,30.12,6.2,South,18.4,-,N/A,,Overcast,190,2013-12-16 01:55:00
3:25 AM,48.2,42.8,82,30.12,6.2,South,18.4,-,N/A,,Overcast,180,2013-12-16 02:25:00
3:55 AM,48.2,42.8,82,30.12,6.2,South,17.3,-,N/A,,Overcast,190,2013-12-16 02:55:00
4:00 AM,47,43,81,30.16,13,SSW,17.9,,,,Overcast,200,2013-12-16 03:00:00
4:25 AM,48.2,42.8,82,30.15,6.2,SSW,18.4,-,N/A,,Overcast,200,2013-12-16 03:25:00
4:55 AM,48.2,42.8,82,30.12,6.2,South,16.1,-,N/A,,Overcast,190,2013-12-16 03:55:00
5:25 AM,46.4,42.8,87,30.12,6.2,South,17.3,-,N/A,,Overcast,190,2013-12-16 04:25:00
5:55 AM,46.4,42.8,87,30.12,6.2,South,17.3,-,N/A,,Overcast,190,2013-12-16 04:55:00
6:25 AM,48.2,42.8,82,30.12,6.2,South,18.4,29.9,N/A,,Overcast,190,2013-12-16 05:25:00
6:55 AM,46.4,42.8,87,30.12,6.2,South,19.6,-,N/A,,Partly Cloudy,190,2013-12-16 05:55:00
7:00 AM,47,43,82,30.13,11,South,17.9,,,,Partly Cloudy,190,2013-12-16 06:00:00
7:25 AM,48.2,42.8,82,30.12,6.2,SSW,19.6,-,N/A,,Overcast,200,2013-12-16 06:25:00
7:55 AM,48.2,42.8,82,30.12,6.2,South,17.3,-,N/A,,Overcast,190,2013-12-16 06:55:00
8:25 AM,48.2,42.8,82,30.12,6.2,South,17.3,-,N/A,,Overcast,190,2013-12-16 07:25:00
8:55 AM,48.2,42.8,82,30.12,6.2,South,17.3,-,N/A,,Overcast,190,2013-12-16 07:55:00
9:25 AM,48.2,42.8,82,30.12,6.2,South,18.4,-,N/A,,Scattered Clouds,190,2013-12-16 08:25:00
9:55 AM,50.0,42.8,76,30.12,6.2,South,17.3,-,N/A,,Unknown,190,2013-12-16 08:55:00
10:00 AM,49,43,71,30.14,17,South,17.9,,,,Overcast,190,2013-12-16 09:00:00
10:25 AM,50.0,41.0,71,30.12,6.2,South,15.0,27.6,N/A,,Overcast,190,2013-12-16 09:25:00
10:55 AM,50.0,41.0,71,30.12,6.2,SSW,19.6,-,N/A,,Overcast,200,2013-12-16 09:55:00
11:25 AM,50.0,41.0,71,30.12,6.2,South,18.4,-,N/A,,Overcast,190,2013-12-16 10:25:00
11:55 AM,50.0,41.0,71,30.12,6.2,South,18.4,-,N/A,,Partly Cloudy,190,2013-12-16 10:55:00
12:25 PM,51.8,42.8,71,30.12,6.2,South,17.3,-,N/A,,Overcast,190,2013-12-16 11:25:00
12:55 PM,51.8,42.8,71,30.12,6.2,SSW,18.4,-,N/A,,Partly Cloudy,200,2013-12-16 11:55:00
1:00 PM,52,42,61,30.12,16,South,17.9,,,,Partly Cloudy,190,2013-12-16 12:00:00
1:25 PM,53.6,42.8,67,30.12,6.2,South,15.0,-,N/A,,Overcast,190,2013-12-16 12:25:00
1:55 PM,53.6,42.8,67,30.12,6.2,SSW,16.1,-,N/A,,Overcast,200,2013-12-16 12:55:00
2:25 PM,53.6,41.0,62,30.09,6.2,SSW,17.3,-,N/A,,Mostly Cloudy,200,2013-12-16 13:25:00
2:55 PM,53.6,41.0,62,30.09,6.2,SSW,17.3,-,N/A,,Unknown,200,2013-12-16 13:55:00
3:25 PM,53.6,41.0,62,30.09,6.2,SSW,19.6,-,N/A,,Unknown,200,2013-12-16 14:25:00
3:55 PM,51.8,41.0,67,30.09,6.2,SSW,18.4,29.9,N/A,,Unknown,200,2013-12-16 14:55:00
4:00 PM,53,40,52,30.10,25,SSW,17.9,,,,Overcast,200,2013-12-16 15:00:00
4:25 PM,51.8,39.2,62,30.09,6.2,South,16.1,-,N/A,,Unknown,190,2013-12-16 15:25:00
4:55 PM,51.8,41.0,67,30.09,6.2,SW,15.0,-,N/A,,Unknown,220,2013-12-16 15:55:00
5:00 PM,52,40,54,30.13,28,SW,17.9,,,,Overcast,220,2013-12-16 16:00:00
5:25 PM,51.8,39.2,62,30.12,6.2,SSW,17.3,-,N/A,,Overcast,210,2013-12-16 16:25:00
5:55 PM,51.8,41.0,67,30.12,6.2,SSW,19.6,-,N/A,,Overcast,210,2013-12-16 16:55:00
6:00 PM,51,40,57,30.14,25,SSW,15.7,,,,Overcast,200,2013-12-16 17:00:00
6:25 PM,50.0,41.0,71,30.12,6.2,SSW,16.1,-,N/A,,Unknown,200,2013-12-16 17:25:00
6:55 PM,50.0,41.0,71,30.12,6.2,SSW,16.1,-,N/A,,Scattered Clouds,200,2013-12-16 17:55:00
7:00 PM,50,41,62,30.15,22,SSW,15.7,,,,Partly Cloudy,200,2013-12-16 18:00:00
7:25 PM,50.0,41.0,71,30.15,6.2,SSW,15.0,-,N/A,,Unknown,200,2013-12-16 18:25:00
7:55 PM,50.0,41.0,71,30.15,6.2,SSW,15.0,-,N/A,,Mostly Cloudy,200,2013-12-16 18:55:00
8:00 PM,49,41,66,30.16,19,South,13.4,,,,Overcast,190,2013-12-16 19:00:00
8:25 PM,50.0,41.0,71,30.15,6.2,South,13.8,-,N/A,,Overcast,190,2013-12-16 19:25:00
8:55 PM,50.0,42.8,76,30.15,6.2,SSW,13.8,-,N/A,,Overcast,200,2013-12-16 19:55:00
9:00 PM,50,43,68,30.16,17,SSW,13.4,,,,Overcast,200,2013-12-16 20:00:00
9:25 PM,50.0,42.8,76,30.15,6.2,SSW,15.0,-,N/A,,Overcast,200,2013-12-16 20:25:00
9:55 PM,50.0,42.8,76,30.12,6.2,SSW,16.1,-,N/A,,Overcast,200,2013-12-16 20:55:00
10:00 PM,50,43,70,30.15,17,SSW,15.7,,,,Overcast,200,2013-12-16 21:00:00
10:25 PM,50.0,42.8,76,30.12,6.2,South,12.7,-,N/A,,Overcast,190,2013-12-16 21:25:00
10:55 PM,50.0,42.8,76,30.12,6.2,SSW,13.8,-,N/A,,Overcast,200,2013-12-16 21:55:00
11:00 PM,50,44,71,30.15,14,SSW,13.4,,,,Overcast,200,2013-12-16 22:00:00
11:25 PM,50.0,42.8,76,30.12,6.2,South,15.0,-,N/A,,Overcast,190,2013-12-16 22:25:00
11:55 PM,50.0,42.8,76,30.12,6.2,SSW,15.0,-,N/A,,Overcast,200,2013-12-16 22:55:00